Retour au catalogue

MIDAS 4 DEB

LostPO
NORAD 45467·DEBRIS·🇺🇸 United States

Lancé Oct 21, 1961 depuis Vandenberg Space Force Base

Loading…

Prochains Passages (prochaines 24 heures)

TLE

PériméSource: Space-Track

Époque: Apr 19, 2025, 15:11 UTC

1 45467U 61028M   25109.63283500 -.00000113  00000-0 -32453-1 0  9992
2 45467  95.8328 190.3350 0905562 151.7473 213.5700  8.70606683304323

Suivez MIDAS 4 DEB en temps réel avec AllMySat

Download on the App Store